Showing default

ICEYE-X4, 44390

Orbit data source: Space-Track

ICEYE-X4, 44390 is a payload satellite owned by ICEYE (FI) in SSO that was launched on Fri, 05 Jul 2019 UTC via a SOYUZ-2-1B launch vehicle from the Vostochny Cosmodrome (VOSTO). Payload-class satellites include a variety of spacecraft equipped with specific instruments for various scientific and technological missions. These include communications satellites like Starlink; space stations such as the ISS; scientific satellites like the Hubble; Earth observation satellites from companies like Planet Labs, Umbra, and HawkEye 360; GPS; miniature CubeSats for education and research; and military/defense satellites.

Loading next visibility...
Identifier
44390, 2019-038D
Orbit
SSO
Country
Flag of FIFI / FIN
Related business
Manufacturer
ICEYE
Mission
Operational Commercial Radar Imaging
Bus & Motor
ICEYE, Unknown motor
Mass
80 kg wet, 80 kg dry
Launch date (UTC)
2019-07-05 (6 years ago)
Launch vehicle
SOYUZ-2-1B
Launch site
Vostochny Cosmodrome (VOSTO)
Object type
Payload
Rocket body
Debris
Shape & HBR
Box + 1 Pan, 1.6 m
Radar Cross Section
1.837 m², Medium (>0.1 m² and < 1m²)

Expand to show TLE details & history
Last TLE update: 9 hours ago

TLE from 9 hours ago
0 ICEYE-X4
1 44390U 19038D   25353.00511094  .00009758  00000-0  39660-3 0  9995
2 44390  97.8949  10.7411 0013718 208.5943 151.4543 15.24696874354303
Epoch: 2025-12-19T00:07Z
TLE epoch observation values (Epoch: 2025-12-19T00:07:21.585Z)
Latitude
0.00006°
Longitude
-78.95133°
Altitude
503.061 km
Speed
7.608 km/s
True Right ascension
00h 42m 57s
True Declination
0° 00' 00"
Sunlit
Object was in daylight at epoch
Visualization orbit readout
Latitude
Unknown
Longitude
Unknown
Altitude
Unknown
Speed
Unknown
Apparent Right ascension
Unknown
Apparent Declination
Unknown
Sunlit
N/A
Visualization observer readout
Local Sidereal Time
08:12:09
Azimuth
Unknown
Elevation
Unknown
Doppler factor
Unknown
Orbital elements
Apogee altitude
498.097 km
Perigee altitude
479.257 km
Semi-major axis
6,866.814 km
Eccentricity
0.00137
Inclination
97.8949°
RAAN
10.7411°
Arg. of periapsis
208.5943°
True anomaly
151.5293°
Mean anomaly
151.4543°
Eccentric anomaly
151.49181°
Mean motion
3.81426 °/min
Orbital period
94.38 mins
BSTAR
0.0003966
Loading maneuver chart data...
Computing Atmospheric mass density...

Documentation

Showing up to 5 results
|